STARLINK-11158, 60403

Orbit data source: Space-Track

STARLINK-11158, 60403 is a payload satellite owned by SpaceX/Seattle (US) in LEO that was launched on Sat, 10 Aug 2024 UTC via an FALCON 9 launch vehicle from the Air Force Eastern Test Range (AFETR). Payload-class satellites include a variety of spacecraft equipped with specific instruments for various scientific and technological missions. These include communications satellites like Starlink; space stations such as the ISS; scientific satellites like the Hubble; Earth observation satellites from companies like Planet Labs, Umbra, and HawkEye 360; GPS; miniature CubeSats for education and research; and military/defense satellites.

Loading next visibility...
Identifier
60403, 2024-141F
Orbit
LEO
Country
Flag of USUS
Related business
Manufacturer
SpaceX/Seattle
Mission
Operational Commercial Communications
Bus & Motor
STARLINK V2MD, Unknown motor
Mass
960 kg wet, ~910 kg dry
Launch date (UTC)
2024-08-10 (1 year ago)
Launch vehicle
FALCON 9
Launch site
Air Force Eastern Test Range (AFETR)
Object type
Payload
Rocket body
Debris
Shape & HBR
Box + 2 Pan, 14.5 m
Radar Cross Section
36.964 m², Large (>1 m²)

Expand to show TLE details & history
Last TLE update: 22 hours ago

TLE from 22 hours ago
0 STARLINK-11158
1 60403U 24141F   25260.28993320 -.00003098  00000-0 -20726-4 0  9999
2 60403  53.1597 221.4169 0000963  71.3271 288.7852 15.69706335 64453
Epoch: 2025-09-17T06:57Z
TLE epoch observation values (Epoch: 2025-09-17T06:57:30.228Z)
Latitude
0.00003°
Longitude
120.57296°
Altitude
360.443 km
Speed
7.694 km/s
True Right ascension
14h 45m 40s
True Declination
0° 00' 00"
Sunlit
Object was in daylight at epoch
Visualization orbit readout
Latitude
Unknown
Longitude
Unknown
Altitude
Unknown
Speed
Unknown
Apparent Right ascension
Unknown
Apparent Declination
Unknown
Sunlit
N/A
Visualization observer readout
Local Sidereal Time
22:01:02
Azimuth
Unknown
Elevation
Unknown
Doppler factor
Unknown
Orbital elements
Apogee altitude
360.647 km
Perigee altitude
359.349 km
Semi-major axis
6,738.135 km
Eccentricity
0.0001
Inclination
53.1597°
RAAN
221.4169°
Arg. of periapsis
71.3271°
True anomaly
288.77475°
Mean anomaly
288.7852°
Eccentric anomaly
288.77998°
Mean motion
3.92404 °/min
Orbital period
91.74 mins
BSTAR
-0.000020726
Loading maneuver chart data...
Computing Atmospheric mass density...
Loading historical data...
Loading historical data...
Loading historical data...
Loading historical data...
Loading historical data...
Loading historical data...
Loading historical data...

Documentation

Showing up to 5 results
|